Вернуться в каталог

ONEWEB-0456

АктивенСвязьPO
NORAD 51646·PAYLOAD·🇬🇧 United Kingdom

Запущен Feb 10, 2022 с Guiana Space Centre

Loading…

Ближайшие Пролёты (ближайшие 24 часа)

TLE

СвежийSource: CelesTrak SupGP

Эпоха: Sep 14, 2026, 22:08 UTC

1 51646C 22012AA  26257.92238843 -.00002456  00000+0 -70431-2 0  2572
2 51646  87.8915  18.3952 0001771  97.0607 322.1736 13.10378298    12

Отслеживайте ONEWEB-0456 в реальном времени с AllMySat

Download on the App Store